Location: Unspecified
(50.1700°N, 6.8600°E)
Time: 23:48:13
(UTC+00:00)

Daily predictions for brighter satellites

Satellite Brightness Start Highest point End
(mag) Time Altitude Azimuth Time Altitude Azimuth Time Altitude Azimuth
Gbstr 26 Del rocket 4.0 16:49:51 10° WNW 16:55:28 84° SSW 17:02:28 10° ESE
Cosmos 2239 Rocket 4.5 16:52:04 10° N 16:58:15 81° E 17:04:23 10° SSE
Meteor 1-16 Rocket 4.3 16:54:29 10° S 16:59:47 52° E 17:05:00 10° NNE
Envisat 3.2 16:55:57 10° SE 17:00:52 52° ENE 17:05:48 10° N
Unknown 3.9 16:56:55 10° W 17:01:02 65° N 17:05:11 10° ENE
Unknown 3.7 16:57:42 10° WNW 17:01:22 55° N 17:05:04 10° E
Cosmos 1726 2.6 16:58:34 10° SSE 17:01:57 37° E 17:05:21 10° NNE
Cosmos 1953 Rocket 3.6 16:58:03 10° N 17:02:27 90° W 17:06:47 10° S
Cosmos 1908 4.2 16:59:15 10° SSE 17:02:35 27° E 17:05:53 10° NNE
Starlink (trailer) 3.9 16:58:35 10° W 17:02:42 64° N 17:06:50 10° ENE
Cosmos 2278 Rocket 2.9 16:57:55 10° SSE 17:02:54 33° ESE 17:07:55 10° NE
Unknown 3.9 17:00:17 10° W 17:04:24 64° N 17:08:32 10° ENE
Falcon 9 debris 3.1 17:01:18 10° WNW 17:04:46 84° NNE 17:08:13 10° ESE
Okean-O 2.6 17:00:24 10° SSE 17:04:50 80° ENE 17:09:18 10° NNW
Unknown 3.2 17:01:35 10° WNW 17:05:07 74° NNE 17:08:38 10° ESE
BREEZE-M DEB (TANK) 4.5 17:01:48 10° SSW 17:05:41 19° SSE 17:07:55 10° ESE
Unknown 3.9 17:01:56 10° W 17:06:04 63° N 17:10:12 10° ENE
Meteor 1-11 4.4 17:01:53 10° N 17:07:34 55° ENE 17:13:16 10° SSE
Cosmos 1821 Rocket 4.2 17:02:00 10° NNW 17:08:08 80° W 17:14:18 10° S
Cosmos 1605 Rocket 4.2 17:02:51 10° N 17:08:51 49° ENE 17:14:46 10° SSE
FengYun 1-2 T 4.4 17:04:17 10° SE 17:09:44 53° ENE 17:15:10 10° N
Cosmos 1844 3.9 17:04:10 10° SSW 17:09:54 83° WNW 17:15:45 10° NNE
Cosmos 1356 3.7 17:06:54 10° S 17:10:11 45° E 17:13:31 10° NNE
Unknown 3.9 17:06:41 10° W 17:10:47 62° N 17:14:53 10° ENE
Cosmos 1953 2.8 17:07:38 10° SSW 17:11:41 67° WNW 17:15:45 10° N
Cosmos 1934 Rocket 4.0 17:05:32 10° N 17:11:54 75° E 17:18:17 10° SSE
Unknown 3.9 17:08:36 10° W 17:12:43 62° N 17:16:48 10° ENE
Unknown 3.9 17:10:27 10° W 17:14:34 61° N 17:18:36 11° ENE
Cosmos 1606 Rocket 3.8 17:10:18 10° SSW 17:14:40 77° W 17:19:02 10° N
Unknown 3.9 17:11:55 10° W 17:16:04 61° N 17:20:02 11° ENE
CSL-04 Rocket 4.0 17:10:52 10° SE 17:16:07 47° ENE 17:21:20 10° N
USA 238 DEB 4.4 17:11:55 10° S 17:17:41 32° ESE 17:23:38 10° NE
Unknown 3.9 17:13:38 10° W 17:17:45 60° N 17:21:36 12° ENE
USA 238 4.4 17:12:02 10° S 17:17:48 32° ESE 17:23:43 10° NE
COBE Rocket 4.1 17:14:15 10° NNE 17:19:21 57° E 17:24:19 10° S
Unknown 3.9 17:15:25 10° W 17:19:31 60° N 17:23:18 12° ENE
Cosmos 2263 Rocket 4.3 17:15:34 10° W 17:19:51 21° NW 17:24:07 10° N
Meteor 2-10 4.0 17:16:22 10° S 17:21:19 60° E 17:26:18 10° NNE
Cosmos 1076 Rocket 4.5 17:18:20 10° N 17:22:03 26° ENE 17:25:43 10° SE
CZ-4 R/B 4.5 17:18:49 10° SSE 17:22:50 57° ENE 17:26:54 10° N
Unknown 3.9 17:18:45 10° W 17:22:51 59° N 17:26:30 13° ENE
Unknown 3.9 17:18:49 10° W 17:22:55 59° N 17:26:34 13° ENE
Nadezhda 3 Rocket 4.4 17:17:42 10° SSW 17:24:00 72° WNW 17:30:24 10° N
Unknown 3.9 17:20:17 10° W 17:24:23 59° N 17:27:58 13° ENE
Unknown 3.2 17:23:18 10° WNW 17:26:50 85° SSW 17:30:03 12° ESE
Unknown 3.9 17:23:32 10° W 17:27:39 59° N 17:31:05 14° ENE
Unknown 3.9 17:26:58 10° W 17:31:04 58° N 17:34:22 15° ENE
YAOGAN 6 2.6 17:28:19 10° SSE 17:31:55 62° ENE 17:35:30 10° N
Cosmos 292 Rocket 3.7 17:27:59 10° SSW 17:32:43 85° ESE 17:37:31 10° NNE
Unknown 3.9 17:28:39 10° W 17:32:45 58° N 17:35:58 16° ENE
Cosmos 2058 4.0 17:29:41 10° NNE 17:33:11 24° ENE 17:36:39 10° SE
Cosmos 1833 Rocket 2.6 17:27:34 10° NNW 17:33:14 81° ENE 17:38:51 10° SSE
Unknown 4.0 17:30:19 10° W 17:34:25 58° N 17:37:34 16° ENE
Unknown 3.7 17:30:43 10° WNW 17:34:30 58° N 17:37:14 18° E
Cosmos 1812 Rocket 4.3 17:31:29 10° SSE 17:35:23 31° E 17:39:20 10° NNE
Unknown 4.0 17:32:00 10° W 17:36:06 57° N 17:39:11 17° ENE
Unknown 4.0 17:35:21 10° W 17:39:27 57° N 17:42:23 18° ENE
NOSS 3-2 (A) 4.0 17:35:38 10° S 17:40:48 34° ESE 17:46:23 11° NE
Unknown 4.0 17:37:04 10° W 17:41:11 57° N 17:44:02 19° ENE
Cosmos 1328 4.5 17:38:04 10° NNW 17:42:00 58° W 17:45:52 10° S
Unknown 4.0 17:38:40 10° W 17:42:46 57° N 17:45:33 19° ENE
SKYMED 2 3.5 17:39:06 10° NNE 17:43:28 68° ESE 17:47:46 10° S
Ariane Rocket 3.5 17:38:52 10° SE 17:43:35 39° ENE 17:48:19 10° N
Cosmos 2151 4.4 17:40:46 10° NNE 17:43:46 18° ENE 17:44:07 18° ENE
Unknown 4.0 17:40:17 10° W 17:44:22 57° N 17:47:06 20° ENE
Cosmos 2228 4.3 17:40:35 10° SSW 17:44:46 45° WNW 17:48:57 10° N
YAOGAN 1 2.5 17:41:49 10° SSE 17:46:07 73° ENE 17:50:27 10° N
Unknown 4.0 17:42:03 10° W 17:46:09 57° N 17:48:48 21° ENE
NOSS 3-3 (A) 4.5 17:40:05 10° NW 17:47:27 80° NE 17:55:38 10° SE
NOSS 3-3 (C) 4.5 17:40:10 10° NW 17:47:32 79° NE 17:55:45 10° SE
Unknown 4.0 17:43:28 10° W 17:47:35 57° N 17:50:10 21° ENE
Unknown 4.0 17:46:49 10° W 17:50:55 57° N 17:53:22 22° ENE
Cosmos 921 Rocket 4.3 17:47:55 10° SW 17:52:12 43° WNW 17:56:27 10° N
Unknown 4.0 17:48:29 10° W 17:52:35 57° N 17:54:58 23° ENE
Cosmos 2100 Rocket 4.2 17:47:56 10° N 17:53:53 46° ENE 17:59:45 10° SE
Cosmos 1300 3.3 17:50:31 10° SSE 17:53:57 33° E 17:57:25 10° NNE
Unknown 3.9 17:50:23 10° W 17:54:28 57° N 17:56:46 24° ENE
Cosmos 1939 Rocket 3.1 17:51:00 10° SE 17:54:52 48° ENE 17:58:49 10° N
HJ-1C 4.2 17:54:55 28° E 17:55:21 29° ENE 17:58:19 10° N
Unknown 3.9 17:51:50 10° W 17:55:56 57° N 17:58:10 25° ENE
Unknown 3.6 17:52:11 10° WNW 17:56:04 62° N 17:57:58 28° E
Abrixas rocket 2.5 17:53:44 10° WSW 17:56:41 45° SSE 17:57:37 33° ESE
Cosmos 1937 Rocket 4.2 17:52:29 10° N 17:57:06 32° NE 17:59:13 23° E
Unknown 3.9 17:53:27 10° W 17:57:33 57° N 17:59:43 26° ENE
Cosmos 990 Rocket 4.5 17:52:50 10° NNW 17:57:44 39° ENE 18:00:41 21° ESE
CZ-2D R/B 3.3 17:54:16 10° SSE 17:58:03 56° ENE 18:01:52 10° N
Unknown 3.9 17:56:51 10° W 18:00:57 57° N 18:02:58 27° ENE
Unknown 3.9 17:58:29 10° WNW 18:02:35 57° N 18:04:32 28° ENE
ADEOS Rocket 4.3 17:57:47 10° NE 18:03:45 24° E 18:07:27 17° SE
Cosmos 2082 Rocket 2.2 17:58:22 10° NNW 18:04:08 87° WSW 18:09:49 10° SSE
Unknown 3.9 18:00:10 10° WNW 18:04:16 57° N 18:06:09 29° ENE
CSL-04 Debris 4.3 17:59:00 10° SSE 18:04:27 78° WSW 18:09:59 10° NNW
Unknown 3.8 18:01:43 10° WNW 18:05:44 58° N 18:07:24 32° ENE
BREEZE-M DEB (TANK) 4.2 18:01:25 10° WNW 18:05:52 63° SSW 18:18:49 10° SE
Unknown 3.9 18:01:49 10° WNW 18:05:55 57° N 18:07:43 30° ENE
NOSS 3-2 (C) 4.0 18:01:23 10° S 18:06:33 34° ESE 18:09:35 22° ENE
Cosmos 1153 Rocket 4.4 18:02:46 10° N 18:08:58 86° E 18:15:07 10° S
ASTEX 1 4.1 18:04:15 10° N 18:09:07 57° WNW 18:13:58 10° SSW
Unknown 3.9 18:05:14 10° WNW 18:09:19 57° N 18:10:59 32° ENE
USA 116 3.1 18:06:24 10° NNE 18:09:37 80° ESE 18:13:04 10° SSW
Unknown 3.9 18:06:17 10° WNW 18:10:23 57° N 18:11:59 33° ENE
Unknown 3.9 18:07:01 10° WNW 18:11:07 58° N 18:12:41 34° ENE
Cosmos 2016 Rocket 4.4 18:05:17 10° N 18:11:12 41° ENE 18:15:25 19° SE
Unknown 3.9 18:08:19 10° WNW 18:12:22 58° N 18:13:50 35° ENE
Unknown 3.9 18:08:44 10° WNW 18:12:50 58° N 18:14:20 35° ENE
Unknown 3.9 18:11:53 10° WNW 18:15:59 58° N 18:17:21 37° ENE
Unknown 4.5 18:14:34 10° W 18:17:41 33° SW 18:19:11 22° SSE
Unknown 3.9 18:15:12 10° WNW 18:19:18 58° N 18:20:32 40° ENE
Unknown 3.9 18:16:52 10° WNW 18:20:58 58° N 18:22:08 41° ENE
Unknown 3.9 18:18:30 10° WNW 18:22:36 58° N 18:23:42 42° ENE
Lacrosse 5 2.7 18:19:05 10° WNW 18:23:56 48° SW 18:27:31 17° SSE
Unknown 3.9 18:20:11 10° WNW 18:24:17 59° N 18:25:18 44° ENE
Meteor 2-1 Rocket 4.3 18:19:38 10° S 18:24:57 51° E 18:30:22 10° NNE
SL-27 R/B 4.3 18:22:23 10° N 18:23:39 18° NNE 18:23:39 18° NNE
SJ 16-02 1.6 18:21:17 10° NNW 18:25:30 43° ENE 18:25:45 43° ENE
CZ-4 R/B 3.2 18:22:06 10° SSW 18:25:58 35° W 18:29:53 10° NNW
FALCON 9 DEB 4.5 18:23:43 10° W 18:26:54 34° SW 18:28:00 27° S
SPOT 3 Rocket 4.0 18:26:38 37° E 18:27:24 39° ENE 18:32:13 10° N
In-Cosmos 22 Rocket 4.0 18:22:27 10° N 18:27:52 70° ENE 18:32:45 13° SSE
ATLAS CENTAUR R/B 3.2 18:26:22 10° NNW 18:29:50 20° NNE 18:30:12 20° NNE
Unknown 3.8 18:26:51 10° WNW 18:30:58 60° N 18:31:42 50° NE
COSMO-SKYMED 1 3.8 18:27:21 10° N 18:31:28 42° WNW 18:35:34 10° SW
Unknown 3.8 18:28:33 10° WNW 18:32:40 60° N 18:33:20 52° NE
Cosmos 2084 Rocket 4.1 18:29:32 10° NW 18:33:53 53° SW 18:36:06 26° SSE
ATLAS 3B R/B 3.0 18:28:03 10° S 18:34:09 38° ESE 18:35:04 36° E
Unknown 3.8 18:30:11 10° WNW 18:34:18 61° N 18:34:53 53° NE
ATLAS 5 CENTAUR R/B 3.8 18:31:59 10° WNW 18:35:41 22° NNW 18:39:02 13° NNE
Unknown 3.7 18:31:51 10° WNW 18:35:58 61° N 18:36:29 55° NE
Unknown 3.7 18:33:30 10° WNW 18:37:37 61° N 18:38:04 57° NE
Unknown 3.4 18:35:49 10° WNW 18:39:32 70° SSW 18:39:39 69° S
Unknown 3.7 18:36:49 10° WNW 18:40:57 62° N 18:41:16 60° NE
CENTAUR R/B 2.8 18:36:12 10° S 18:41:50 43° ESE 18:42:36 41° E
Starlink (trailer) 3.7 18:38:29 10° WNW 18:42:37 63° N 18:42:51 61° NNE
H-2A R/B 2.4 18:42:58 46° ENE 18:43:15 46° ENE 18:48:26 10° N
Cosmos 1459 Rocket 3.9 18:37:23 10° N 18:43:39 90° WSW 18:49:58 10° S
Unknown 3.7 18:40:11 10° WNW 18:44:19 63° N 18:44:29 62° NNE
Cosmos 2061 Rocket 3.9 18:39:02 10° N 18:45:19 72° ENE 18:49:20 23° SSE
SJ-6B 4.3 18:47:30 24° N 18:47:30 24° N 18:49:14 10° N
Unknown 3.7 18:41:51 10° WNW 18:45:59 64° N 18:46:04 63° NNE
Cosmos 2278 Rocket 3.0 18:41:16 10° SW 18:46:47 51° NW 18:52:21 10° NNE
SJ-11-01 4.1 18:46:46 57° SE 18:47:38 75° ENE 18:52:19 10° N
Cosmos 1898 Rocket 3.5 18:42:26 10° NNW 18:47:44 86° WSW 18:50:02 35° SSE
Cosmos 1766 Rocket 3.7 18:44:53 10° N 18:48:35 57° NNE 18:48:35 57° NNE
Cosmos 2297 3.6 18:44:51 10° SSW 18:50:30 69° ESE 18:53:21 30° NE
Unknown 3.7 18:46:31 10° WNW 18:50:31 65° N 18:50:31 65° N
Unknown 3.8 18:48:29 10° WNW 18:52:27 65° N 18:52:27 65° N
Unknown 3.8 18:50:22 10° WNW 18:54:17 65° NNW 18:54:17 65° NNW
Unknown 3.8 18:51:48 10° WNW 18:55:40 64° NNW 18:55:40 64° NNW
Unknown 3.9 18:53:30 10° WNW 18:57:15 63° NNW 18:57:15 63° NNW
Unknown 3.9 18:55:16 10° WNW 18:58:57 62° NNW 18:58:57 62° NNW
Okean 3 Rocket 3.7 18:54:55 10° NNW 18:59:27 77° W 19:00:14 59° SSW
Unknown 4.0 18:58:35 10° WNW 19:02:08 59° NW 19:02:08 59° NW
Unknown 4.0 18:58:40 10° WNW 19:02:12 59° NW 19:02:12 59° NW
Resurs 01 Rocket 3.6 19:06:07 18° NNE 19:06:07 18° NNE 19:07:29 10° N
Unknown 4.1 19:00:08 10° WNW 19:03:37 57° NW 19:03:37 57° NW
ARGOS 3.2 19:05:13 62° NE 19:05:13 62° NE 19:10:21 10° N
Unknown 4.2 19:03:23 10° WNW 19:06:44 54° NW 19:06:44 54° NW
USA 238 DEB 3.8 19:01:25 10° SW 19:08:08 72° NW 19:12:35 24° NE
USA 238 3.8 19:01:31 10° SW 19:08:14 73° NW 19:12:38 25° NE
Cosmos 1892 4.1 19:04:41 10° NNW 19:06:54 33° NNW 19:06:54 33° NNW
Cosmos 2058 4.4 19:06:19 10° NNW 19:10:13 37° W 19:12:59 17° SSW
Cosmos 44 3.6 19:05:50 10° SW 19:09:46 57° SSW 19:09:46 57° SSW
Unknown 4.4 19:06:48 10° WNW 19:10:01 51° NW 19:10:01 51° NW
Cosmos 2173 Rocket 4.5 19:05:47 10° NNW 19:11:55 58° W 19:17:55 10° S
Unknown 4.4 19:08:29 10° WNW 19:11:37 49° NW 19:11:37 49° NW
Unknown 4.5 19:10:09 10° WNW 19:13:13 48° WNW 19:13:13 48° WNW
Cosmos 1864 Rocket 4.4 19:11:14 10° N 19:17:26 89° W 19:18:58 54° S
Cosmos 1802 Rocket 4.5 19:14:15 10° NNW 19:20:35 61° W 19:26:33 12° S
Cosmos 2151 3.8 19:17:12 10° NNW 19:20:43 49° NW 19:20:43 49° NW
Meteor 2-3 Rocket 4.5 19:19:31 10° N 19:23:33 42° NNE 19:23:33 42° NNE
Cosmos 2123 Rocket 3.8 19:24:50 53° S 19:26:27 86° E 19:32:45 10° N
Cosmos 468 Rocket 4.3 19:23:54 10° SSW 19:28:19 60° WSW 19:28:19 60° WSW
NOSS 3-2 (A) 3.8 19:25:22 10° WSW 19:31:15 62° NW 19:33:48 37° NNE
Cosmos 2233 Rocket 4.0 19:27:11 10° N 19:32:56 72° NNE 19:32:56 72° NNE
Cosmos 1725 Rocket 4.2 19:28:16 10° NNW 19:34:32 70° W 19:36:08 50° SSW
CZ-2C R/B 3.7 19:38:10 57° N 19:38:10 57° N 19:42:40 10° NNW
Cosmos 1937 Rocket 4.3 19:34:20 10° NW 19:39:14 45° WSW 19:39:25 45° WSW
Cosmos 2227 Rocket 4.4 19:41:28 10° N 19:43:33 14° NNE 19:43:33 14° NNE
Cosmos 2297 Rocket 4.4 19:46:10 10° N 19:48:12 15° NNE 19:48:12 15° NNE
ADEOS Rocket 3.4 19:42:24 10° NNE 19:50:10 85° WNW 19:54:18 29° SSW
NOSS 3-2 (C) 3.8 19:51:08 10° WSW 19:57:03 63° NW 19:57:04 63° NW
SJ 16-02 3.7 20:00:19 10° NW 20:02:46 22° WNW 20:02:46 22° WNW
ATLAS CENTAUR R/B 4.0 20:05:06 10° NW 20:06:23 18° NW 20:06:23 18° NW
ATLAS 5 CENTAUR R/B 4.2 20:18:15 10° NW 20:20:34 19° NNW 20:20:34 19° NNW
H-2A R/B 3.8 20:23:36 30° WNW 20:23:36 30° WNW 20:27:39 10° NNW
ATLAS 3B R/B 3.5 20:17:58 10° WSW 20:22:24 42° W 20:22:24 42° W
CENTAUR R/B 3.7 20:26:10 10° WSW 20:29:52 36° W 20:29:52 36° W
